Flight Track Log - Related Links

Times and Time Zones

All times are in EDT time to prevent confusion due to time zone crossing. See the N97826 flight status page for this flight to view local times or setup timezone preferences in your user account.

Time Position Orientation Groundspeed Altitude Reporting Facility
EDT Latitude Longitude Course Direction KTS MPH feet Rate Location/Type
Sat 03:45:37 PM 38.5628 -109.7319 60° Northeast 165 190 13,500  Level Salt Lake Center
Sat 03:46:15 PM 38.5789 -109.6967 60° Northeast 172 198 13,500  Level Denver Center
Sat 03:47:17 PM 38.6050 -109.6406 59° Northeast 169 194 13,500  Level Denver Center
Sat 03:48:19 PM 38.6286 -109.5919 58° Northeast 167 192 13,500 49 Level Denver Center
Sat 03:49:20 PM 38.6519 -109.5417 59° Northeast 169 194 13,600  Climbing Denver Center
Sat 03:50:22 PM 38.6797 -109.4839 58° Northeast 171 197 13,500 -49 Descending Denver Center
Sat 03:51:23 PM 38.7033 -109.4325 60° Northeast 173 199 13,500  Level Denver Center
Sat 03:52:25 PM 38.7311 -109.3725 59° Northeast 174 200 13,500  Level Denver Center
Sat 03:53:27 PM 38.7539 -109.3206 61° Northeast 174 200 13,500  Level Denver Center
Sat 03:54:28 PM 38.7806 -109.2664 58° Northeast 165 190 13,500  Level Denver Center
Sat 03:55:30 PM 38.8053 -109.2122 60° Northeast 165 190 13,500  Level Denver Center
Sat 03:56:32 PM 38.8294 -109.1606 59° Northeast 168 193 13,500 49 Level Denver Center
Sat 03:57:33 PM 38.8572 -109.1125 53° Northeast 167 192 13,600 49 Climbing Denver Center
Sat 03:58:35 PM 38.8850 -109.0569 57° Northeast 173 199 13,600 -146 Level Denver Center
Sat 03:59:36 PM 38.9039 -109.0000 67° East 173 199 13,300 -390 Descending Denver Center
Sat 04:00:38 PM 38.9289 -108.9467 59° Northeast 181 208 12,800 -581 Descending Denver Center
Sat 04:01:40 PM 38.9575 -108.8856 59° Northeast 186 214 12,100 -780 Descending Denver Center
Sat 04:02:41 PM 38.9853 -108.8264 59° Northeast 191 220 11,200 -927 Descending Denver Center
Sat 04:03:43 PM 39.0117 -108.7694 59° Northeast 186 214 10,200 -1,024 Descending Denver Center
Sat 04:04:44 PM 39.0381 -108.7106 60° Northeast 177 204 9,100 -1,024 Descending Denver Center
Sat 04:05:46 PM 39.0628 -108.6567 59° Northeast 175 201 8,100 -1,161 Descending Denver Center
Sat 04:06:48 PM 39.0744 -108.6017 75° East 165 190 6,700 -976 Descending Denver Center
Sat 04:07:49 PM 39.0767 -108.5439 87° East 152 175 6,100 -439 Descending Denver Center
Sat 04:08:51 PM 39.0814 -108.5067 81° East 116 133 5,800 -341 Descending Denver Center
Sat 04:09:52 PM 39.1047 -108.4942 23° Northeast 91 105 5,400 -439 Descending Denver Center
Sat 04:10:54 PM 39.1217 -108.5203 310° West 87 100 4,900 -242 Descending Denver Center
Sat 04:11:56 PM 39.1289 -108.5339 304° West 75 86 4,900  Level Denver Center

Login

Don't have an account? Register now (free) for customized features, flight alerts, and more!